Weather History for KNCA - May, 2014

Change the Weather History Date:

Saturday, May 17, 2014

  Actual Average Record
Temperature  
Mean Temperature 64 °F -  
Max Temperature 73 °F 78 °F 88 °F (2013)
Min Temperature 54 °F 57 °F 45 °F (1997)
Degree Days  
Heating Degree Days 2    
Growing Degree Days 14 (Base 50)    
Moisture  
Dew Point 45 °F    
Average Humidity 57    
Maximum Humidity 93    
Minimum Humidity 32    
Precipitation  
Precipitation 0.00 in - - ()
Sea Level Pressure  
Sea Level Pressure 30.13 in    
Wind  
Wind Speed 9 mph (WNW)    
Max Wind Speed 16 mph    
Max Gust Speed 24 mph    
Visibility 10 miles    
Events      
Averages and records for this station are not official NWS values.
T = Trace of Precipitation, MM = Missing Value Source: NWS Daily Summary

Daily Weather History Graph

Daily Weather History Graph

Search for Another Location

Airport or City:

Trip Planner

Search our weather history database for the weather conditions in past years. The results will help you decide how hot, cold, wet, or windy it might be!

Date:

Astronomy

May. 17, 2014 Rise Set
Actual Time 6:05 AM EDT 8:07 PM EDT
Civil Twilight 5:37 AM EDT 8:35 PM EDT
Nautical Twilight 5:03 AM EDT 9:09 PM EDT
Astronomical Twilight 4:26 AM EDT 9:46 PM EDT
Moon 11:07 PM EDT (5/17) 8:45 AM EDT (5/17)
Length of Visible Light 14h 58m
Length of Day
14h 01m
Waning Gibbous, 89% of the Moon is Illuminated
May 17
Waning Gibbous
May 21
Last Quarter
May 28
New
Jun 5
First Quarter
Jun 13
Full

Hourly Weather History & Observations

Time (EDT) Temp. Dew Point Humidity Pressure Visibility Wind Dir Wind Speed Gust Speed Precip Events Conditions
12:56 AM 57.9 °F 50.0 °F 75% 30.05 in 10.0 mi WSW 6.9 mph - N/A   Clear
1:56 AM 57.0 °F 50.0 °F 77% 30.04 in 10.0 mi WSW 5.8 mph - N/A   Clear
2:56 AM 55.0 °F 48.9 °F 80% 30.04 in 10.0 mi West 6.9 mph - N/A   Clear
3:56 AM 55.9 °F 48.0 °F 75% 30.07 in 10.0 mi WNW 10.4 mph - N/A   Clear
4:56 AM 55.0 °F 48.0 °F 77% 30.08 in 10.0 mi WNW 9.2 mph - N/A   Clear
5:56 AM 54.0 °F 46.9 °F 77% 30.10 in 10.0 mi WNW 8.1 mph - N/A   Clear
6:56 AM 55.0 °F 46.9 °F 74% 30.12 in 10.0 mi WNW 8.1 mph - N/A   Clear
7:56 AM 57.9 °F 45.0 °F 62% 30.14 in 10.0 mi NW 12.7 mph - N/A   Clear
8:56 AM 61.0 °F 42.1 °F 50% 30.16 in 10.0 mi NW 13.8 mph - N/A   Clear
9:56 AM 64.0 °F 37.9 °F 38% 30.16 in 10.0 mi NNW 16.1 mph - N/A   Clear
10:56 AM 66.0 °F 37.0 °F 34% 30.15 in 10.0 mi WNW 13.8 mph - N/A   Clear
11:56 AM 66.9 °F 36.0 °F 32% 30.16 in 10.0 mi NNW 15.0 mph 24.2 mph N/A   Clear
12:56 PM 69.1 °F 39.0 °F 33% 30.15 in 10.0 mi NNW 15.0 mph - N/A   Clear
1:56 PM 70.0 °F 39.0 °F 32% 30.14 in 10.0 mi NW 13.8 mph - N/A   Clear
2:56 PM 71.1 °F 39.9 °F 32% 30.14 in 10.0 mi West 10.4 mph 20.7 mph N/A   Clear
3:56 PM 72.0 °F 41.0 °F 33% 30.12 in 10.0 mi NW 12.7 mph 20.7 mph N/A   Clear
4:56 PM 73.0 °F 42.1 °F 33% 30.12 in 10.0 mi WNW 11.5 mph - N/A   Clear
5:56 PM 72.0 °F 41.0 °F 33% 30.12 in 10.0 mi WNW 10.4 mph - N/A   Clear
6:56 PM 71.1 °F 42.1 °F 35% 30.13 in 10.0 mi WNW 11.5 mph - N/A   Clear
7:56 PM 66.9 °F 44.1 °F 44% 30.15 in 10.0 mi NNW 5.8 mph - N/A   Clear
8:56 PM 60.1 °F 50.0 °F 69% 30.15 in 10.0 mi Calm Calm - N/A   Clear
9:56 PM 57.0 °F 53.1 °F 87% 30.17 in 10.0 mi Calm Calm - N/A   Clear
10:56 PM 55.9 °F 52.0 °F 87% 30.18 in 10.0 mi Calm Calm - N/A   Clear
11:56 PM 54.0 °F 52.0 °F 93% 30.19 in 10.0 mi Calm Calm - N/A   Clear